星链-1940 (STARLINK-1940 )

导读

STARLINK-1940是美国太空探索技术公司Starlink卫星互联网项目的卫星,于2021年2月4日发射升空,属于该项目星链组群的组成部分。星链计划旨在构建全球卫星互联网星座,为全球各地提供高速互联网接入服务,尤其覆盖偏远地区。STARLINK-1940运行在近地轨道,与其他星链卫星协同工作,通过星间链路实现信号传输,助力完成全球网络覆盖,推动卫星通信技术发展与全球化互联进程。

Basic Information
目录编号:
47552
目录名称:
STARLINK-1940
国际标识:
2021-009E
轨道中心:
EARTH
卫星名称:
星链-1940
卫星全名:
星链-1940 (STARLINK-1940 )
卫星状态:
已陨落 最后检测时间 2025-07-30
发射日期:
2021-02-04 UTC
国别 :
美国 (US)
星等 :
--
Orbit Information
数据来源 国际轨道数据
星历时间: 2025-07-30T12:19:43+0800
轨道信息已过期323天
半长轴: 6534.457km
偏心率: 0.0002242
轨道倾角: 53.028°
近地点辐角 254.147°
升交点赤经 238.140°
平近点角 225.845°
近地点: 154.856km
远地点: 157.788km
周期: 87.614分钟
每日圈数: 16.435712
Detailed Information
固有亮度:
5
最大亮度:
2.5
卫星平台:
Starlink V1.0
覆盖范围:
全球
运营商:
太空探索技术公司
运营商所在国:
美国
制造商(研发单位):
太空探索技术公司
制造商所在国:
美国
使用方式:
暂无
Satellite Introduction
星链(Starlink)计划是由太空探索技术公司(SpaceX)提出的一个巨型低轨卫星互联网星座项目,计划在2019年至2024年间在太空搭建由约1.2万颗卫星组成的“星链”网络,其中1584颗将部署在地球上空550千米处的近地轨道,并从2020年开始工作。该卫星仍在工作。